Regional Weather Roundup
Issued by NWS Charleston, SC

Current Version | Previous Version | Text Only | Print | Product List | Glossary Off
Versions: 1 2 3 4 5 6 7 8 9 10 11 12 13 14 15 16 17 18 19 20 21 22 23 24 25 26 27 28 29 30 31 32 33 34 35 36 37 38 39 40 41 42 43 44 45 46 47 48 49 50

000
ASUS42 KCHS 142028
RWRCHS

REGIONAL WEATHER ROUNDUP
NATIONAL WEATHER SERVICE CHARLESTON SC
300 PM EST SUN FEB 14 2016

NOTE: "FAIR" INDICATES FEW OR NO CLOUDS BELOW 12,000 FEET WITH NO
SIGNIFICANT WEATHER AND/OR OBSTRUCTIONS TO VISIBILITY.

NOT ALL STATIONS ARE QUALITY CONTROLLED BY THE NATIONAL
WEATHER SERVICE. USE DATA WITH CAUTION...ESPECIALLY
DEWPOINT OBSERVATIONS.

SCZ027-030-031-034>040-042>050-142100-
...SOUTHEAST SOUTH CAROLINA...

CITY           SKY/WX    TMP DP  RH WIND       PRES   REMARKS
N CHARLESTON   PTSUNNY   42  19  39 SE12      30.39F
WATERFRONT PRK   N/A     38  29  70 E16       30.26F WCI  29
MOUNT PLEASANT MOCLDY    39  28  65 NE7G21    30.41F WCI  34
JOHNS ISLAND   CLOUDY    39  28  65 NE17G23   30.40F WCI  30
PINOPOLIS        N/A     41  10  28 E8        30.34S
MONCKS CORNER  FAIR      39   7  26 E9        30.39F WCI  33
SUMMERVILLE    FAIR      45  16  31 E7        30.39F
BEAUFORT MCAS  CLOUDY    44  23  43 E7        30.37F
BEAUFORT ARPT  CLOUDY    41  27  56 E12       30.37F
HILTON HEAD IS CLOUDY    39  32  75 NE14G21   30.38  WCI  31
WALTERBORO     MOCLDY    45  14  29 E8        30.38F
ALLENDALE      FAIR      45  16  31 CALM      30.35F

...SOUTHERN MIDLANDS AND PEE DEE...

CITY           SKY/WX    TMP DP  RH WIND       PRES   REMARKS
GEORGETOWN     FAIR      36  21  55 E10       30.45F WCI  28
KINGSTREE      FAIR      37   5  25 N6        30.42F WCI  33
ORANGEBURG     CLOUDY    41   8  25 NE7       30.39F
BARNWELL       FAIR      45  16  31 SE5       30.37F
AIKEN          FAIR      41  10  28 E9        30.37F
MANNING        FAIR      39   5  24 E5        30.40F WCI  36
COLUMBIA       CLOUDY    38   3  23 E9        30.40F WCI  31
SUMTER         CLOUDY    37   6  26 NE9       30.39F WCI  31
FLORENCE       CLOUDY    34   3  27 E8        30.44F WCI  27
MYRTLE BEACH   CLOUDY    36  10  35 SE6       30.47F WCI  31
N MYRTLE BEACH CLOUDY    36  13  38 E10       30.45F WCI  28

$$

GAZ063-065-086>088-099>101-113>116-118-119-134>141-150-142100-
...SOUTHEAST GEORGIA...

CITY           SKY/WX    TMP DP  RH WIND       PRES   REMARKS
SAVANNAH ARPT  CLOUDY    43  28  55 E13       30.36F
HUNTER AAF     CLOUDY    42  31  63 E8        30.33F
FORT STEWART   CLOUDY    45  31  59 E7        30.32F
STATESBORO     CLOUDY    51  21  30 SE6       30.33F
SYLVANIA       CLOUDY    48  28  45 SE5       30.35S
CLAXTON        CLOUDY    47  34  59 NE8       30.33F

...CSRA...CENTRAL AND FAR SOUTHEAST GEORGIA...

CITY           SKY/WX    TMP DP  RH WIND       PRES   REMARKS
THOMSON        CLOUDY    47  20  34 E9        30.35F
AUGUSTA-BUSH   MOSUNNY   44  14  29 SE10      30.35F HAZE
AUGUSTA-DANIEL MOSUNNY   44  11  26 E8        30.34F
SWAINSBORO     FAIR      48  25  40 S7        30.32F
VIDALIA        CLOUDY    52  32  46 SE8       30.30F
EASTMAN        FAIR      53  27  37 E6        30.31F
HAZLEHURST     FAIR      54  34  47 E9        30.28F
ALMA           MOSUNNY   52  38  58 SE9       30.29F
WAYCROSS       MOSUNNY   56  44  63 E16       30.29S
JESUP          CLOUDY    48  39  71 SE9       30.33F
BAXLEY         FAIR      54  37  54 SE8       30.30S
BRUNSWICK      CLOUDY    46  41  81 NE13G23   30.33F
SAINT SIMONS   CLOUDY    46  41  82 N18G26    30.32F

$$

SCZ027-028-034-036>038-045-046-048>050-GAZ119-141-142100-
...LAKE AND SUPPLEMENTAL COASTAL OBSERVATIONS...

STATION/POSITION TIME  TEMP    WIND        PRES    WAVE   SWELL
                       AIR SEA DIR/SP/G            HT/PER HT/PER/DIR
                 (UTC) (F)     (DEG/KT/KT) (MB)    (FT/S) (FT/S/D)
WINYAH BAY       1900   32      60/ 14     1030.0
LAKE MURRAY      1900   35      50/  3/ 11 1029.1F
ACE BASIN NERRS  1900   43      60/  5     1029.0F
FORT PULASKI     2000   40 50   50/ 18/ 22 1028.2F
SAPELO ISLAND    2000   44      30/ 16     1027.0F

$$

ANZ835-935-AMZ111-154-330-350-352-354-370-450-454-472-142100-
...C-MAN AND BUOY OBSERVATIONS...

STATION/POSITION TIME  TEMP    WIND        PRES    WAVE   SWELL
                       AIR SEA DIR/SP/G            HT/PER HT/PER/DIR
                 (UTC) (F)     (DEG/KT/KT) (MB)    (FT/S) (FT/S/D)
BUOY 41004       1950   46 68   40/ 17/ 23 1028.0F   5/ 7   2/ 9
BUOY 41008       1950   47 53   40/ 21/ 27 1026.3F   7/ 7
FOLLY BEACH CMAN 2000   38      40/ 23/ 26 1029.3F
CAPERS NEARSHORE 1908   37      50/ 19/ 27 1029.9F
FRIPP NEARSHORE  1900   40      50/ 21/ 25 1027.7F


STATION/POSITION TIME  TEMP    WIND        PRES    WAVE   SWELL
                       AIR SEA DIR/SP/G            HT/PER HT/PER/DIR
                 (UTC) (F)     (DEG/KT/KT) (MB)    (FT/S) (FT/S/D)
5E ST. MARYS GA  1921      55                N/A     5/ 6
FRYING PAN BUOY  2000   37 61   40/ 16/ 21 1031.2F
BUOY 41025       1950   31 71   20/ 16/ 21 1031.9F   5/10   3/ 60/10
CAPE LOOKOUT NC  2000   28     360/ 10/ 13 1032.1F
BUOY 41002       1950   49 68   30/ 12/ 16   N/A     9/11   8/ 20/11
BUOY 41010       1920   63 72              1024.6F
ST AUGUSTINE FL  2000   54 58  360/ 19/ 20 1025.5F


$$



USA.gov is the U.S. government's official web portal to all federal, state and local government web resources and services.